QPF
0.07 0.08 0.10 0.11 0.13 0.15 0.15 0.14 0.14 0.14 0.13 0.09 0.06 0.04 0.04 0.05 0.10 0.07 0.04 0.04 0.03 0.02 0.03 0.03 0.02 0.02 0.03 0.04 0.03 0.03 0.04 0.03 0.02 0.01 0.01 0.01 0.01 0.01
0.06 0.07 0.08 0.10 0.12 0.13 0.16 0.16 0.14 0.13 0.13 0.11 0.10 0.08 0.06 0.05 0.08 0.07 0.05 0.08 0.06 0.04 0.04 0.05 0.04 0.03 0.02 0.02 0.01 0.01 0.01 0.01 0.00 0.01 0.01 0.01 0.01 0.01
0.06 0.05 0.06 0.08 0.09 0.10 0.12 0.15 0.15 0.14 0.11 0.11 0.10 0.09 0.08 0.07 0.06 0.06 0.08 0.08 0.07 0.07 0.05 0.05 0.04 0.03 0.02 0.02 0.01 0.01 0.00 0.00 0.00 0.01 0.01 0.01 0.01 0.01
0.06 0.06 0.07 0.09 0.10 0.11 0.11 0.12 0.13 0.14 0.14 0.13 0.12 0.11 0.09 0.08 0.09 0.09 0.09 0.08 0.08 0.11 0.10 0.07 0.06 0.04 0.03 0.01 0.01 0.01 0.01 0.00 0.01 0.01 0.01 0.01 0.01 0.01
0.06 0.07 0.07 0.08 0.10 0.12 0.12 0.13 0.13 0.13 0.14 0.13 0.13 0.14 0.14 0.14 0.15 0.14 0.14 0.15 0.13 0.15 0.17 0.15 0.11 0.08 0.05 0.03 0.03 0.02 0.01 0.01 0.00 0.00 0.01 0.01 0.01 0.01
0.05 0.06 0.07 0.07 0.07 0.09 0.11 0.13 0.14 0.16 0.15 0.13 0.13 0.15 0.17 0.19 0.23 0.24 0.22 0.21 0.24 0.20 0.21 0.21 0.20 0.16 0.10 0.07 0.04 0.02 0.01 0.01 0.01 0.01 0.01 0.00 0.00 0.01
0.03 0.04 0.06 0.06 0.07 0.08 0.09 0.12 0.14 0.15 0.17 0.17 0.16 0.18 0.21 0.25 0.26 0.28 0.30 0.29 0.29 0.29 0.27 0.24 0.21 0.18 0.15 0.11 0.08 0.04 0.02 0.01 0.01 0.01 0.00 0.00 0.00 0.00
0.02 0.03 0.04 0.06 0.06 0.07 0.10 0.11 0.11 0.14 0.19 0.20 0.19 0.20 0.22 0.26 0.30 0.33 0.35 0.37 0.38 0.32 0.28 0.28 0.24 0.20 0.15 0.11 0.09 0.06 0.03 0.02 0.02 0.02 0.01 0.01 0.00 0.00
0.02 0.03 0.03 0.03 0.05 0.07 0.09 0.12 0.10 0.09 0.14 0.21 0.20 0.18 0.22 0.27 0.35 0.38 0.36 0.32 0.33 0.32 0.28 0.32 0.28 0.23 0.17 0.12 0.09 0.07 0.05 0.04 0.03 0.02 0.02 0.01 0.01 0.01
0.02 0.03 0.04 0.05 0.03 0.04 0.06 0.08 0.09 0.08 0.08 0.13 0.18 0.21 0.22 0.25 0.37 0.48 0.46 0.39 0.40 0.43 0.39 0.38 0.32 0.24 0.18 0.15 0.13 0.10 0.07 0.05 0.03 0.02 0.02 0.01 0.01 0.01
0.03 0.03 0.04 0.06 0.04 0.02 0.04 0.06 0.08 0.09 0.08 0.10 0.14 0.19 0.24 0.26 0.35 0.49 0.55 0.52 0.48 0.45 0.37 0.34 0.32 0.27 0.24 0.18 0.15 0.14 0.10 0.07 0.04 0.02 0.02 0.01 0.01 0.01
0.02 0.03 0.03 0.03 0.02 0.02 0.03 0.05 0.07 0.08 0.09 0.12 0.13 0.17 0.20 0.25 0.31 0.36 0.42 0.43 0.42 0.36 0.29 0.25 0.24 0.20 0.23 0.21 0.15 0.12 0.09 0.08 0.06 0.04 0.02 0.01 0.01 0.00
0.02 0.03 0.04 0.02 0.02 0.01 0.03 0.04 0.04 0.05 0.08 0.12 0.14 0.16 0.20 0.25 0.28 0.32 0.36 0.35 0.33 0.27 0.20 0.18 0.19 0.13 0.10 0.12 0.12 0.10 0.07 0.05 0.04 0.03 0.02 0.01 0.00 0.00
0.01 0.02 0.03 0.02 0.02 0.01 0.02 0.03 0.03 0.04 0.08 0.10 0.11 0.15 0.17 0.21 0.28 0.30 0.31 0.33 0.30 0.26 0.21 0.14 0.12 0.10 0.07 0.06 0.06 0.07 0.06 0.04 0.03 0.02 0.01 0.01 0.00 0.00
0.01 0.02 0.03 0.02 0.02 0.02 0.02 0.02 0.03 0.05 0.07 0.09 0.11 0.13 0.16 0.18 0.19 0.26 0.28 0.29 0.30 0.33 0.29 0.19 0.12 0.09 0.07 0.06 0.05 0.04 0.04 0.03 0.02 0.01 0.00 0.00 0.00 0.00
0.01 0.01 0.02 0.01 0.01 0.02 0.02 0.02 0.04 0.08 0.09 0.09 0.12 0.11 0.12 0.17 0.17 0.20 0.23 0.25 0.27 0.32 0.29 0.22 0.16 0.10 0.07 0.05 0.04 0.03 0.03 0.02 0.01 0.01 0.00 0.00 0.00 0.00
0.00 0.01 0.02 0.03 0.03 0.04 0.03 0.03 0.04 0.10 0.12 0.10 0.13 0.13 0.11 0.13 0.16 0.16 0.18 0.18 0.18 0.19 0.20 0.17 0.16 0.11 0.06 0.04 0.03 0.02 0.01 0.01 0.01 0.01 0.00 0.00 0.00 0.00
0.00 0.01 0.02 0.02 0.04 0.04 0.03 0.02 0.03 0.08 0.11 0.09 0.13 0.15 0.13 0.13 0.15 0.16 0.16 0.15 0.15 0.14 0.13 0.11 0.10 0.08 0.04 0.02 0.02 0.01 0.01 0.00 0.00 0.00 0.00 0.00 0.00 0.00
0.00 0.01 0.01 0.01 0.01 0.02 0.02 0.01 0.02 0.04 0.06 0.08 0.11 0.12 0.12 0.14 0.16 0.16 0.15 0.14 0.14 0.11 0.09 0.07 0.06 0.05 0.04 0.02 0.00 0.00 0.00 0.00 0.00 0.00 0.00 0.00 0.00 0.00
0.00 0.00 0.00 0.01 0.01 0.01 0.01 0.01 0.02 0.02 0.04 0.07 0.08 0.10 0.10 0.11 0.11 0.12 0.11 0.10 0.10 0.09 0.06 0.04 0.03 0.02 0.03 0.02 0.01 0.00 0.00 0.00 0.00 0.00 0.00 0.00 0.00 0.00
0.00 0.00 0.00 0.00 0.00 0.01 0.01 0.01 0.01 0.01 0.02 0.03 0.05 0.07 0.07 0.07 0.06 0.05 0.07 0.07 0.06 0.05 0.04 0.02 0.01 0.01 0.01 0.01 0.01 0.00 0.00 0.00 0.00 0.00 0.00 0.00 0.00 0.00
0.00 0.00 0.00 0.00 0.00 0.00 0.00 0.00 0.01 0.01 0.01 0.01 0.02 0.03 0.04 0.03 0.03 0.02 0.02 0.02 0.03 0.04 0.03 0.01 0.00 0.00 0.00 0.00 0.00 0.00 0.00 0.00 0.00 0.00 0.00 0.00 0.00 0.00
0.00 0.00 0.00 0.00 0.00 0.00 0.00 0.00 0.00 0.01 0.01 0.01 0.01 0.01 0.01 0.02 0.01 0.01 0.01 0.01 0.01 0.01 0.01 0.01 0.00 0.00 0.00 0.00 0.00 0.00 0.00 0.00 0.00 0.00 0.00 0.00 0.00 0.00
MSLP
1010.47 1010.38 1010.38 1010.44 1010.54 1010.64 1010.71 1010.76 1010.77 1010.75 1010.74 1010.73 1010.78 1010.88 1011.06 1011.31 1011.64 1012.02 1012.45 1012.91 1013.38 1013.85 1014.30 1014.74 1015.16 1015.55 1015.93 1016.29 1016.64 1016.99 1017.33 1017.66 1017.98 1018.30 1018.59 1018.86 1019.12 1019.35
1010.20 1010.03 1009.94 1009.92 1009.94 1009.98 1010.03 1010.07 1010.09 1010.11 1010.14 1010.19 1010.29 1010.44 1010.66 1010.94 1011.28 1011.66 1012.08 1012.53 1012.99 1013.44 1013.89 1014.32 1014.75 1015.15 1015.55 1015.94 1016.32 1016.69 1017.06 1017.42 1017.77 1018.11 1018.43 1018.72 1018.99 1019.24
1009.94 1009.70 1009.54 1009.44 1009.40 1009.40 1009.41 1009.44 1009.48 1009.53 1009.60 1009.71 1009.86 1010.06 1010.31 1010.61 1010.96 1011.34 1011.76 1012.19 1012.62 1013.07 1013.50 1013.94 1014.36 1014.79 1015.20 1015.62 1016.03 1016.44 1016.84 1017.23 1017.60 1017.96 1018.30 1018.62 1018.92 1019.19
1009.71 1009.42 1009.21 1009.06 1008.96 1008.92 1008.91 1008.92 1008.97 1009.04 1009.15 1009.29 1009.48 1009.71 1009.98 1010.29 1010.64 1011.02 1011.42 1011.84 1012.26 1012.69 1013.13 1013.57 1014.02 1014.46 1014.91 1015.36 1015.81 1016.25 1016.68 1017.10 1017.50 1017.89 1018.25 1018.59 1018.91 1019.21
1009.56 1009.24 1008.98 1008.79 1008.65 1008.57 1008.53 1008.53 1008.57 1008.65 1008.76 1008.92 1009.12 1009.36 1009.63 1009.94 1010.28 1010.64 1011.03 1011.43 1011.85 1012.29 1012.74 1013.21 1013.69 1014.18 1014.68 1015.17 1015.66 1016.14 1016.61 1017.05 1017.48 1017.88 1018.27 1018.63 1018.98 1019.31
1009.51 1009.16 1008.87 1008.64 1008.47 1008.35 1008.28 1008.26 1008.27 1008.33 1008.43 1008.57 1008.75 1008.97 1009.22 1009.50 1009.82 1010.16 1010.53 1010.94 1011.37 1011.83 1012.32 1012.84 1013.38 1013.93 1014.48 1015.04 1015.58 1016.11 1016.61 1017.08 1017.53 1017.96 1018.36 1018.75 1019.12 1019.48
1009.55 1009.19 1008.88 1008.62 1008.41 1008.25 1008.14 1008.08 1008.05 1008.07 1008.12 1008.22 1008.35 1008.52 1008.72 1008.96 1009.24 1009.56 1009.93 1010.34 1010.80 1011.31 1011.86 1012.45 1013.06 1013.69 1014.33 1014.95 1015.56 1016.13 1016.67 1017.17 1017.64 1018.09 1018.51 1018.92 1019.32 1019.71
1009.66 1009.29 1008.96 1008.68 1008.44 1008.24 1008.09 1007.97 1007.89 1007.85 1007.84 1007.86 1007.92 1008.02 1008.16 1008.35 1008.59 1008.88 1009.25 1009.68 1010.18 1010.75 1011.38 1012.05 1012.76 1013.48 1014.20 1014.90 1015.57 1016.20 1016.77 1017.31 1017.80 1018.26 1018.70 1019.12 1019.53 1019.95
1009.80 1009.42 1009.08 1008.77 1008.51 1008.28 1008.09 1007.92 1007.79 1007.68 1007.59 1007.53 1007.51 1007.53 1007.60 1007.72 1007.92 1008.20 1008.57 1009.03 1009.58 1010.21 1010.92 1011.69 1012.49 1013.31 1014.11 1014.89 1015.62 1016.29 1016.90 1017.46 1017.97 1018.45 1018.89 1019.32 1019.75 1020.17
1009.90 1009.52 1009.18 1008.87 1008.59 1008.34 1008.12 1007.92 1007.73 1007.56 1007.40 1007.28 1007.18 1007.12 1007.13 1007.20 1007.37 1007.63 1008.00 1008.49 1009.09 1009.79 1010.57 1011.41 1012.30 1013.19 1014.07 1014.90 1015.68 1016.39 1017.04 1017.62 1018.14 1018.62 1019.07 1019.50 1019.92 1020.34
1009.94 1009.57 1009.24 1008.93 1008.66 1008.40 1008.17 1007.94 1007.73 1007.52 1007.32 1007.14 1006.99 1006.88 1006.84 1006.88 1007.02 1007.27 1007.65 1008.16 1008.80 1009.54 1010.37 1011.28 1012.21 1013.15 1014.07 1014.94 1015.75 1016.48 1017.15 1017.73 1018.26 1018.74 1019.19 1019.61 1020.02 1020.42
1009.92 1009.57 1009.25 1008.96 1008.69 1008.45 1008.22 1008.00 1007.78 1007.56 1007.34 1007.14 1006.97 1006.84 1006.78 1006.81 1006.94 1007.20 1007.59 1008.11 1008.76 1009.52 1010.38 1011.29 1012.24 1013.19 1014.11 1014.99 1015.80 1016.54 1017.20 1017.78 1018.31 1018.78 1019.22 1019.62 1020.01 1020.39
1009.86 1009.53 1009.23 1008.96 1008.71 1008.49 1008.28 1008.08 1007.88 1007.67 1007.47 1007.29 1007.12 1007.01 1006.96 1007.00 1007.14 1007.41 1007.81 1008.33 1008.98 1009.73 1010.57 1011.46 1012.37 1013.29 1014.18 1015.02 1015.80 1016.52 1017.16 1017.73 1018.24 1018.70 1019.12 1019.51 1019.87 1020.21
1009.81 1009.49 1009.20 1008.95 1008.72 1008.52 1008.34 1008.17 1008.00 1007.83 1007.67 1007.53 1007.40 1007.33 1007.32 1007.40 1007.57 1007.86 1008.26 1008.78 1009.40 1010.12 1010.90 1011.72 1012.57 1013.41 1014.23 1015.00 1015.73 1016.39 1017.00 1017.54 1018.04 1018.48 1018.88 1019.25 1019.59 1019.90
1009.81 1009.49 1009.21 1008.96 1008.74 1008.56 1008.40 1008.25 1008.12 1008.00 1007.89 1007.80 1007.74 1007.73 1007.78 1007.91 1008.12 1008.43 1008.84 1009.34 1009.93 1010.58 1011.29 1012.02 1012.76 1013.50 1014.21 1014.90 1015.54 1016.14 1016.70 1017.21 1017.68 1018.11 1018.50 1018.85 1019.17 1019.45
1009.85 1009.54 1009.25 1008.99 1008.77 1008.59 1008.44 1008.32 1008.21 1008.13 1008.08 1008.05 1008.06 1008.12 1008.24 1008.42 1008.68 1009.02 1009.44 1009.92 1010.46 1011.04 1011.65 1012.28 1012.90 1013.51 1014.11 1014.69 1015.24 1015.76 1016.27 1016.74 1017.19 1017.60 1017.98 1018.32 1018.64 1018.91
1009.92 1009.60 1009.31 1009.04 1008.81 1008.61 1008.46 1008.34 1008.26 1008.21 1008.19 1008.22 1008.29 1008.42 1008.60 1008.84 1009.15 1009.51 1009.93 1010.39 1010.89 1011.40 1011.92 1012.43 1012.94 1013.43 1013.91 1014.37 1014.83 1015.29 1015.73 1016.17 1016.60 1017.00 1017.38 1017.73 1018.04 1018.32
1009.94 1009.63 1009.33 1009.06 1008.81 1008.60 1008.44 1008.32 1008.24 1008.21 1008.22 1008.29 1008.41 1008.58 1008.82 1009.11 1009.45 1009.83 1010.26 1010.70 1011.15 1011.60 1012.04 1012.45 1012.86 1013.24 1013.62 1013.99 1014.37 1014.76 1015.15 1015.56 1015.97 1016.37 1016.76 1017.12 1017.45 1017.75
1009.82 1009.54 1009.26 1008.99 1008.74 1008.53 1008.36 1008.24 1008.17 1008.14 1008.17 1008.26 1008.41 1008.61 1008.88 1009.20 1009.56 1009.96 1010.38 1010.81 1011.23 1011.63 1012.01 1012.36 1012.68 1012.98 1013.28 1013.58 1013.89 1014.23 1014.59 1014.98 1015.38 1015.78 1016.18 1016.56 1016.90 1017.22
1009.48 1009.25 1009.02 1008.78 1008.56 1008.36 1008.21 1008.10 1008.03 1008.01 1008.06 1008.15 1008.31 1008.54 1008.81 1009.14 1009.51 1009.91 1010.33 1010.74 1011.14 1011.51 1011.85 1012.16 1012.43 1012.69 1012.94 1013.19 1013.46 1013.77 1014.10 1014.47 1014.86 1015.27 1015.67 1016.06 1016.42 1016.75
1008.87 1008.72 1008.54 1008.37 1008.20 1008.06 1007.94 1007.86 1007.82 1007.83 1007.88 1007.99 1008.15 1008.37 1008.65 1008.97 1009.33 1009.72 1010.13 1010.53 1010.92 1011.28 1011.60 1011.90 1012.16 1012.39 1012.62 1012.85 1013.11 1013.39 1013.70 1014.06 1014.44 1014.83 1015.23 1015.62 1015.99 1016.33
1007.98 1007.91 1007.83 1007.74 1007.66 1007.59 1007.55 1007.53 1007.54 1007.58 1007.66 1007.77 1007.94 1008.15 1008.41 1008.71 1009.06 1009.43 1009.82 1010.22 1010.60 1010.96 1011.30 1011.60 1011.86 1012.11 1012.34 1012.57 1012.82 1013.09 1013.39 1013.72 1014.08 1014.46 1014.84 1015.22 1015.58 1015.90
1006.87 1006.88 1006.89 1006.90 1006.92 1006.96 1007.01 1007.08 1007.16 1007.25 1007.37 1007.50 1007.67 1007.88 1008.12 1008.40 1008.72 1009.07 1009.44 1009.83 1010.22 1010.59 1010.95 1011.27 1011.56 1011.83 1012.08 1012.32 1012.57 1012.83 1013.11 1013.42 1013.75 1014.10 1014.45 1014.79 1015.12 1015.41
Thickness
5682 5685 5688 5693 5696 5699 5701 5702 5701 5700 5705 5712 5716 5722 5724 5726 5729 5729 5732 5731 5731 5730 5729 5729 5728 5727 5726 5725 5723 5721 5719 5717 5714 5711 5709 5706 5704 5701
5673 5677 5680 5684 5688 5691 5693 5696 5699 5699 5701 5710 5712 5715 5717 5720 5722 5724 5727 5728 5727 5727 5726 5725 5725 5724 5722 5721 5719 5717 5715 5713 5710 5707 5704 5702 5699 5696
5667 5669 5672 5675 5679 5682 5686 5688 5691 5693 5693 5701 5705 5708 5709 5712 5716 5718 5721 5721 5722 5722 5722 5721 5721 5720 5718 5716 5714 5712 5710 5708 5705 5702 5699 5697 5693 5690
5657 5660 5663 5667 5669 5674 5677 5680 5684 5687 5688 5691 5695 5699 5702 5706 5709 5711 5714 5716 5718 5718 5717 5717 5716 5715 5713 5711 5709 5707 5705 5702 5700 5697 5694 5691 5688 5684
5647 5651 5654 5657 5660 5664 5667 5672 5675 5680 5682 5684 5688 5691 5694 5698 5700 5703 5706 5709 5711 5713 5712 5711 5710 5709 5707 5705 5703 5701 5699 5697 5694 5691 5688 5685 5682 5678
5639 5642 5645 5648 5651 5655 5659 5663 5667 5670 5673 5676 5679 5682 5686 5690 5693 5695 5697 5701 5704 5706 5706 5705 5704 5702 5701 5699 5697 5695 5692 5690 5688 5685 5682 5679 5676 5672
5631 5634 5637 5638 5640 5644 5649 5653 5658 5662 5665 5668 5672 5675 5679 5681 5685 5691 5692 5694 5696 5699 5698 5698 5697 5695 5693 5691 5689 5687 5685 5683 5680 5678 5675 5672 5669 5665
5622 5625 5629 5631 5633 5635 5639 5643 5647 5653 5659 5663 5667 5670 5674 5678 5681 5684 5686 5687 5687 5692 5691 5689 5690 5688 5687 5684 5682 5680 5678 5675 5673 5671 5668 5665 5661 5657
5613 5616 5620 5624 5625 5631 5634 5637 5642 5645 5651 5658 5662 5667 5670 5675 5676 5678 5681 5683 5684 5687 5684 5681 5681 5680 5679 5677 5675 5672 5670 5667 5665 5663 5660 5657 5653 5649
5608 5609 5612 5615 5619 5622 5627 5632 5637 5642 5647 5652 5658 5663 5666 5669 5672 5674 5676 5676 5675 5676 5677 5672 5671 5670 5669 5667 5665 5664 5661 5659 5657 5655 5652 5649 5645 5641
5605 5606 5607 5610 5611 5615 5621 5627 5632 5637 5641 5645 5651 5655 5658 5661 5664 5665 5665 5666 5665 5665 5666 5665 5661 5659 5657 5656 5655 5654 5653 5651 5649 5646 5644 5641 5637 5633
5603 5605 5604 5605 5607 5611 5618 5623 5626 5631 5637 5642 5646 5649 5652 5655 5657 5659 5661 5660 5658 5656 5657 5658 5654 5651 5646 5644 5646 5644 5642 5641 5640 5638 5635 5633 5630 5628
5603 5604 5605 5604 5606 5610 5614 5620 5623 5627 5633 5638 5642 5645 5647 5649 5651 5653 5655 5657 5655 5653 5653 5654 5649 5647 5644 5636 5634 5635 5634 5632 5630 5628 5627 5625 5624 5623
5604 5605 5606 5604 5606 5609 5614 5617 5620 5624 5630 5634 5636 5639 5641 5643 5645 5647 5649 5650 5651 5651 5649 5650 5647 5644 5640 5634 5629 5626 5626 5626 5625 5624 5622 5618 5616 5616
5607 5605 5605 5605 5607 5612 5612 5615 5619 5623 5626 5629 5631 5632 5634 5636 5637 5639 5640 5641 5641 5640 5641 5642 5643 5640 5639 5636 5630 5625 5621 5620 5621 5621 5619 5616 5614 5613
5612 5611 5608 5608 5610 5610 5613 5616 5618 5620 5622 5624 5625 5627 5628 5629 5630 5631 5632 5632 5631 5629 5631 5633 5634 5635 5633 5631 5629 5625 5622 5619 5617 5617 5617 5616 5615 5615
5613 5615 5616 5615 5615 5614 5615 5615 5616 5617 5619 5620 5621 5622 5623 5624 5625 5626 5627 5628 5627 5624 5622 5622 5624 5626 5626 5627 5623 5621 5620 5617 5616 5615 5614 5614 5614 5615
5614 5618 5618 5618 5617 5616 5615 5615 5614 5615 5616 5617 5618 5619 5620 5620 5621 5621 5622 5623 5621 5620 5618 5617 5618 5618 5617 5616 5618 5619 5618 5617 5615 5613 5613 5613 5615 5615
5618 5622 5621 5620 5619 5618 5617 5616 5615 5614 5615 5615 5615 5616 5617 5617 5617 5617 5618 5618 5617 5616 5615 5616 5618 5619 5618 5617 5613 5614 5616 5616 5614 5612 5613 5614 5616 5617
5625 5626 5625 5623 5622 5621 5620 5619 5617 5616 5615 5614 5614 5614 5614 5615 5614 5615 5615 5615 5614 5612 5612 5613 5615 5618 5620 5620 5617 5613 5611 5614 5614 5614 5613 5614 5615 5613
5631 5629 5628 5627 5625 5624 5623 5621 5620 5619 5617 5616 5615 5613 5613 5613 5613 5613 5613 5610 5611 5611 5610 5610 5611 5612 5615 5616 5614 5612 5611 5609 5612 5615 5615 5614 5613 5614
5635 5633 5631 5629 5628 5627 5625 5623 5622 5621 5619 5618 5616 5615 5614 5613 5613 5612 5611 5610 5610 5611 5611 5608 5606 5608 5611 5613 5616 5615 5611 5608 5606 5607 5608 5612 5616 5618
5638 5636 5634 5631 5629 5628 5627 5626 5625 5624 5623 5621 5619 5617 5616 5615 5614 5613 5612 5612 5610 5609 5608 5606 5606 5607 5610 5612 5614 5615 5612 5610 5609 5608 5609 5609 5609 5609